Terminal Aerodrome Forecast
Issued by NWS Mt. Holly, NJ

Home | Current Version | Previous Version | Text Only | Print | Product List | Glossary On
Versions: 1 2 3 4 5 6 7 8 9 10 11 12 13 14 15 16 17 18
000
FTUS41 KPHI 262339
TAFTTN
TAF
KTTN 262339Z 2700/2724 22010G20KT P6SM BKN020
      TEMPO 2700/2702 33015G25KT 3SM SHRA OVC010
     FM270200 33008KT 5SM -SHRA BR OVC015
     FM270600 35010KT P6SM -RA BKN025 BKN040
      TEMPO 2709/2712 2SM RA OVC008
     FM271300 35008KT P6SM SCT025 OVC100
      TEMPO 2713/2717 BKN025=

USA.gov is the U.S. government's official web portal to all federal, state and local government web resources and services.